CAPE
0 0 0 0 0 0 0 0 0 0 0 0 0 0 0 0 0 0 0 0 0 0 0 0 0 0 0 298 921 937 1310 1763 1968 1816 1744 1432 921 486 377 221 265 542 558 706
0 0 0 0 0 0 0 0 0 0 0 0 0 0 0 0 0 0 0 0 0 0 0 0 0 0 137 178 953 1310 2201 1903 1852 1759 1471 1176 528 356 254 232 293 449 604 499
0 0 0 0 0 0 0 0 0 0 0 0 0 0 0 0 0 0 0 0 0 0 0 0 0 30 320 699 1077 1485 1881 1796 1706 1568 1274 725 225 153 239 224 335 416 353 475
0 0 0 0 0 0 0 0 0 0 0 0 0 0 0 0 0 0 0 0 0 0 0 0 0 290 503 783 866 1007 1660 1733 1564 1204 844 514 285 343 213 204 212 350 375 563
0 0 0 0 0 0 0 0 0 0 0 0 0 0 0 0 0 0 0 0 0 0 0 0 0 434 537 628 824 1377 1542 1351 977 673 538 241 93 178 186 277 236 294 218 289
0 0 0 0 0 0 0 0 0 0 0 0 0 0 0 0 0 0 0 0 0 0 0 15 466 557 565 793 1143 1250 1257 1016 789 525 443 294 256 368 74 272 279 129 263 377
10 5 0 0 0 0 0 0 0 0 0 0 0 0 0 0 0 0 0 0 0 0 37 405 484 484 617 904 1023 991 908 621 601 794 258 597 110 219 321 197 132 344 366 349
9 0 0 0 0 0 0 0 0 0 0 0 0 0 0 0 0 0 0 0 8 354 332 389 382 458 754 906 838 748 595 541 603 234 432 346 242 142 311 117 46 43 22 125
27 1 0 0 0 0 0 0 0 0 0 0 0 0 0 0 0 0 0 0 265 336 350 360 290 540 714 695 533 624 550 487 386 163 417 402 305 223 268 110 49 23 20 0
7 0 0 0 0 0 0 0 0 0 0 0 0 0 0 0 0 0 0 38 291 279 325 267 382 518 561 535 530 560 432 372 276 320 356 291 354 170 165 7 25 66 25 84
0 0 0 0 0 0 0 0 0 0 0 0 0 0 0 0 0 0 0 297 248 186 247 319 426 435 468 519 503 417 323 295 166 320 261 261 82 174 2 23 51 11 0 146
52 32 4 1 0 0 0 0 0 0 0 0 0 0 0 4 0 0 182 354 204 253 227 400 370 401 422 392 390 294 207 133 111 320 388 454 249 12 17 1 40 0 0 1
72 16 7 9 1 0 5 0 0 0 0 0 0 0 0 0 1 0 306 374 273 233 293 320 334 347 338 309 272 263 66 28 225 334 301 505 276 177 63 0 24 5 4 39
41 1 7 4 21 1 5 0 0 0 0 0 0 0 0 0 1 282 379 270 276 226 323 285 288 286 290 277 231 59 9 60 76 401 380 364 316 182 13 2 13 115 53 13
7 136 3 11 28 6 0 0 0 0 0 0 0 0 0 3 537 494 340 274 227 281 280 252 243 227 255 170 11 0 2 29 10 388 572 443 178 110 7 32 36 203 21 79
49 185 40 59 7 0 0 0 0 0 0 0 0 0 0 18 591 539 413 305 272 271 282 274 264 247 261 87 0 0 0 4 309 587 637 446 261 68 1 1 11 47 37 141
39 7 28 2 34 0 0 0 0 0 0 0 0 0 9 444 420 280 272 241 223 258 283 315 327 297 161 0 0 0 0 28 319 472 776 528 400 265 20 36 8 61 24 120
0 0 41 99 31 0 0 35 10 0 1 134 0 0 266 91 18 0 0 40 142 336 268 275 260 185 21 0 0 0 0 10 255 375 515 521 325 196 235 232 39 30 10 48
0 1 7 81 22 0 0 1 3 2 296 233 131 68 0 17 0 0 0 0 6 89 192 193 284 121 0 0 0 0 0 0 161 246 293 165 250 286 232 256 22 26 38 38
0 0 16 57 7 25 5 0 0 0 155 57 13 10 0 12 4 0 0 0 0 10 366 368 311 59 0 0 0 0 0 0 0 238 187 126 86 194 172 12 5 19 43 24
12 15 8 12 39 8 11 3 0 45 9 0 0 0 0 0 0 0 0 0 4 19 449 484 260 33 0 0 0 0 0 0 0 153 219 156 191 594 221 295 283 136 86 25
8 13 6 19 0 3 14 11 11 22 0 0 0 0 0 12 32 70 23 4 20 49 215 522 297 92 0 0 0 0 0 0 0 132 338 290 468 775 593 398 489 255 43 0
16 12 5 17 8 9 13 38 25 7 15 0 0 0 0 15 12 36 140 170 93 79 155 564 406 107 0 0 0 0 0 0 0 204 490 333 424 607 458 570 397 406 48 0
13 13 8 15 8 16 36 12 2 2 0 0 0 0 0 0 0 0 1 1 171 186 225 261 438 138 5 0 0 0 0 0 0 382 358 327 444 444 473 554 293 218 161 51
16 10 5 2 7 6 15 3 0 0 0 0 0 0 0 0 0 0 0 0 0 0 102 293 597 261 71 1 0 13 0 0 35 375 287 362 447 402 273 125 191 204 176 227
27 18 23 9 10 6 0 0 0 0 0 0 0 0 0 0 0 0 0 0 0 6 153 322 660 462 163 20 1 1 0 0 53 389 331 323 471 376 145 0 0 0 0 0
CIN
-0 -0 -0 -0 -0 -0 -0 -0 -0 -0 -0 -0 -0 -0 -0 -0 -0 -0 -0 -0 -0 -0 -0 -0 -0 -0 -0 -311 -269 -292 -354 -414 -326 -299 -268 -250 -296 -362 -345 -331 -200 -158 -144 -75
-0 -0 -0 -0 -0 -0 -0 -0 -0 -0 -0 -0 -0 -0 -0 -0 -0 -0 -0 -0 -0 -0 -0 -0 -0 -0 -260 -305 -301 -325 -329 -353 -314 -290 -294 -283 -371 -382 -336 -302 -215 -136 -92 -78
-0 -0 -0 -0 -0 -0 -0 -0 -0 -0 -0 -0 -0 -0 -0 -0 -0 -0 -0 -0 -0 -0 -0 -0 -0 -235 -374 -343 -381 -379 -343 -324 -303 -275 -257 -319 -418 -403 -306 -251 -179 -133 -119 -83
-0 -0 -0 -0 -0 -0 -0 -0 -0 -0 -0 -0 -0 -0 -0 -0 -0 -0 -0 -0 -0 -0 -0 -0 -0 -335 -356 -424 -483 -436 -296 -246 -255 -279 -295 -319 -331 -252 -249 -191 -196 -128 -82 -61
-0 -0 -0 -0 -0 -0 -0 -0 -0 -0 -0 -0 -0 -0 -0 -0 -0 -0 -0 -0 -0 -0 -0 -0 -0 -401 -476 -506 -489 -379 -297 -287 -332 -334 -306 -351 -312 -239 -181 -173 -143 -114 -116 -98
-0 -0 -0 -0 -0 -0 -0 -0 -0 -0 -0 -0 -0 -0 -0 -0 -0 -0 -0 -0 -0 -0 -0 -58 -430 -464 -493 -483 -415 -362 -326 -338 -336 -342 -299 -254 -204 -143 -221 -149 -115 -131 -113 -98
-10 -2 -0 -0 -0 -0 -0 -0 -0 -0 -0 -0 -0 -0 -0 -0 -0 -0 -0 -0 -0 -0 -253 -401 -426 -463 -458 -430 -407 -381 -365 -391 -331 -225 -284 -127 -233 -158 -110 -110 -126 -100 -85 -62
-1 -1 -0 -0 -0 -0 -0 -0 -0 -0 -0 -0 -0 -0 -0 -0 -0 -0 -0 -0 -157 -308 -353 -401 -442 -489 -432 -405 -414 -405 -393 -358 -281 -304 -180 -156 -141 -155 -94 -135 -138 -130 -63 -84
-14 -11 -0 -0 -0 -0 -0 -0 -0 -0 -0 -0 -0 -0 -0 -0 -0 -0 -0 -0 -245 -274 -320 -410 -451 -448 -422 -425 -443 -395 -363 -313 -277 -254 -138 -112 -131 -113 -73 -87 -96 -103 -114 -0
-25 -0 -0 -0 -0 -0 -0 -0 -0 -0 -0 -0 -0 -0 -0 -0 -0 -0 -0 -71 -260 -300 -341 -390 -406 -426 -411 -409 -385 -348 -331 -286 -238 -161 -119 -94 -70 -98 -59 -97 -85 -71 -109 -60
-1 -0 -0 -0 -0 -0 -0 -0 -0 -0 -0 -0 -0 -0 -0 -0 -0 -0 -0 -213 -265 -305 -358 -390 -397 -398 -385 -360 -347 -329 -286 -240 -228 -122 -111 -87 -145 -63 -82 -80 -67 -85 -0 -44
-46 -10 -0 -65 -0 -0 -0 -0 -0 -0 -0 -0 -0 -0 -0 -100 -0 -0 -169 -225 -273 -323 -334 -362 -379 -376 -356 -346 -315 -293 -272 -251 -225 -106 -65 -61 -83 -143 -68 -54 -72 -0 -0 -28
-18 -11 -4 -34 -4 -11 -8 -0 -0 -0 -0 -0 -0 -0 -0 -0 -6 -0 -166 -232 -260 -306 -304 -336 -340 -349 -338 -310 -279 -246 -297 -296 -136 -96 -94 -61 -80 -62 -62 -0 -92 -32 -42 -99
-19 -5 -7 -0 -57 -0 -0 -0 -0 -0 -0 -0 -0 -0 -0 -0 -32 -134 -157 -193 -243 -271 -293 -314 -319 -324 -299 -254 -233 -293 -339 -252 -207 -67 -71 -91 -77 -70 -113 -43 -34 -21 -42 -33
-10 -0 -1 -21 -26 -3 -0 -0 -0 -0 -0 -0 -0 -0 -0 -20 -103 -153 -165 -182 -207 -262 -271 -277 -303 -295 -250 -248 -156 -0 -98 -288 -250 -72 -77 -84 -100 -77 -59 -53 -77 -24 -35 -49
-4 -0 -2 -15 -51 -0 -0 -0 -0 -0 -0 -0 -0 -0 -0 -17 -59 -110 -131 -151 -196 -221 -224 -230 -255 -241 -201 -282 -0 -0 -0 -345 -97 -74 -82 -84 -61 -76 -42 -14 -37 -36 -48 -50
-16 -3 -7 -25 -17 -7 -0 -0 -0 -0 -0 -0 -0 -0 -1 -55 -103 -117 -120 -138 -165 -164 -170 -198 -218 -187 -227 -0 -0 -0 -0 -288 -91 -88 -55 -65 -35 -40 -73 -38 -30 -37 -43 -37
-0 -0 -40 -10 -2 -0 -0 -24 -49 -0 -56 -91 -0 -0 -78 -222 -296 -0 -8 -252 -108 -127 -143 -182 -202 -234 -303 -0 -0 -0 -0 -179 -98 -69 -43 -45 -43 -52 -43 -38 -45 -51 -56 -49
-0 -0 -5 -0 -0 -0 -0 -19 -37 -16 -44 -102 -155 -364 -0 -225 -128 -0 -0 -0 -278 -218 -151 -219 -233 -274 -0 -0 -0 -0 -0 -0 -128 -61 -50 -69 -51 -44 -48 -46 -71 -65 -59 -51
-0 -0 -11 -0 -0 -0 -0 -0 -0 -0 -0 -80 -73 -152 -0 -95 -98 -0 -0 -0 -0 -251 -170 -210 -236 -310 -0 -0 -0 -0 -0 -0 -0 -75 -71 -101 -87 -66 -60 -107 -71 -76 -75 -67
-2 -9 -6 -2 -0 -0 -0 -0 -0 -14 -0 -0 -0 -0 -0 -0 -0 -0 -0 -0 -312 -262 -153 -191 -249 -348 -0 -0 -0 -0 -0 -0 -0 -132 -100 -116 -114 -68 -95 -74 -64 -75 -72 -77
-0 -0 -0 -2 -0 -0 -0 -0 -0 -0 -25 -9 -0 -0 -0 -104 -223 -225 -254 -252 -231 -254 -216 -179 -263 -356 -0 -0 -0 -0 -0 -0 -0 -160 -120 -147 -125 -64 -72 -70 -57 -65 -64 -0
-0 -0 -0 -0 -0 -0 -0 -0 -0 -5 -17 -0 -0 -0 -0 -173 -236 -247 -199 -196 -180 -247 -275 -155 -259 -365 -0 -0 -0 -0 -0 -0 -0 -192 -147 -166 -120 -94 -97 -69 -71 -53 -129 -32
-0 -0 -0 -0 -0 -0 -0 -5 -14 -13 -0 -0 -0 -0 -0 -0 -0 -0 -16 -86 -220 -215 -219 -234 -244 -326 -431 -0 -0 -0 -0 -0 -0 -196 -181 -175 -133 -110 -102 -68 -112 -111 -107 -132
-3 -6 -0 -0 -3 -1 -6 -17 -0 -0 -0 -0 -0 -0 -0 -0 -0 -0 -0 -0 -0 -0 -255 -203 -217 -293 -377 -100 -0 -401 -0 -0 -263 -205 -218 -208 -147 -117 -137 -96 -68 -151 -164 -140
-5 -1 -0 -0 -3 -0 -0 -0 -0 -0 -0 -0 -0 -0 -0 -0 -0 -0 -0 -0 -0 -332 -302 -228 -195 -260 -322 -377 -73 -127 -0 -0 -341 -236 -217 -239 -177 -174 -240 -0 -0 -0 -0 -0
Wind_Speed
9 8 23 37 20 15 12 22 22 16 19 18 23 22 27 21 11 14 17 11 14 11 11 11 8 8 4 5 8 9 11 10 10 8 7 4 5 4 4 5 6 8 7 7
9 25 26 15 16 19 21 23 23 14 13 15 20 18 25 22 19 21 21 18 11 9 8 7 4 6 8 8 7 8 9 12 9 9 4 4 5 3 4 3 6 7 8 7
16 15 16 21 20 21 25 26 18 21 12 22 15 16 21 19 11 10 10 9 10 11 10 9 9 8 9 9 9 8 9 9 7 8 6 5 4 4 3 1 2 4 7 6
16 18 21 21 26 20 24 17 23 21 13 19 7 20 25 16 17 16 16 13 12 10 8 9 9 10 10 8 9 9 9 9 8 9 7 8 5 4 4 4 3 4 6 5
23 14 11 21 22 18 25 14 19 14 17 16 17 11 23 11 12 7 10 11 11 11 12 12 11 13 11 10 9 8 9 9 9 8 8 6 5 3 3 4 8 7 4 6
16 16 19 20 17 20 17 17 19 15 12 11 20 16 28 16 14 10 10 10 10 11 13 5 14 16 12 10 10 9 9 7 8 8 8 9 8 4 5 5 5 4 3 1
13 18 16 20 17 19 15 11 7 10 11 19 13 14 21 6 14 18 14 12 11 9 9 17 18 15 13 13 12 9 9 8 8 9 8 8 8 8 7 5 4 5 3 1
9 10 9 10 18 11 13 14 10 15 13 16 12 11 13 18 17 22 17 11 5 14 15 16 14 14 14 14 12 10 9 8 8 8 8 7 7 5 4 5 4 4 3 4
3 7 12 16 18 16 20 18 17 17 11 7 7 15 22 27 22 15 7 6 14 14 15 16 12 13 13 13 10 11 10 8 8 8 7 7 6 7 6 6 4 3 4 3
4 10 10 17 14 14 11 11 6 12 14 15 6 10 13 10 20 17 9 10 14 14 15 15 13 14 11 11 10 10 9 9 7 8 7 6 7 6 6 6 5 5 4 5
8 4 14 11 4 9 10 14 11 6 10 13 5 10 15 16 14 14 10 18 18 16 17 14 14 13 12 10 11 9 9 9 8 7 6 7 6 7 6 6 5 5 3 5
4 3 8 12 16 16 15 20 16 10 14 10 5 11 2 4 9 12 19 19 16 18 16 16 15 14 12 11 9 8 8 8 8 7 7 6 7 7 6 6 6 4 3 2
3 3 5 7 7 9 9 13 14 6 6 20 10 16 6 10 6 10 18 18 17 18 17 16 15 14 12 10 10 8 8 8 7 8 7 7 7 6 5 6 6 5 5 5
4 4 7 7 14 10 12 20 17 12 10 7 18 19 10 18 7 17 18 19 19 17 18 16 14 13 11 12 10 9 7 8 7 10 8 8 7 7 6 5 4 3 6 4
4 6 8 15 20 10 13 20 20 18 15 12 11 11 13 9 15 19 19 18 18 18 19 16 15 13 13 10 10 9 8 8 7 13 10 7 7 6 6 5 3 2 5 6
5 4 8 15 18 9 15 21 20 19 22 15 20 15 9 10 14 14 18 19 19 19 18 16 16 14 15 12 11 8 8 8 13 11 8 8 8 7 6 4 3 3 4 6
7 6 4 6 5 7 5 17 22 15 17 18 20 10 6 9 8 9 15 16 18 18 18 16 17 14 13 13 11 8 8 9 12 9 10 10 9 7 7 6 5 4 5 5
10 10 1 6 3 5 2 10 11 12 13 20 19 13 15 18 13 12 13 10 10 18 17 15 13 13 12 10 10 9 8 10 11 8 9 10 10 9 6 6 6 4 3 5
14 6 3 4 3 7 10 16 11 11 14 16 21 19 17 8 17 7 8 6 6 4 14 14 15 15 11 14 10 11 8 8 11 11 9 12 12 8 7 6 6 4 5 4
10 9 4 3 4 4 4 17 21 19 8 13 9 13 3 13 7 2 6 2 7 6 6 15 16 16 15 13 11 11 8 8 8 12 10 10 10 12 8 8 7 4 3 4
1 4 3 4 3 5 15 26 27 4 2 16 8 7 9 2 4 4 2 4 5 5 7 15 17 15 15 15 12 10 8 8 7 13 11 11 8 8 8 7 4 4 4 6
3 5 1 1 3 4 14 16 7 5 13 15 5 7 5 2 4 7 6 7 7 8 8 15 14 14 13 15 13 9 9 8 7 8 14 11 9 9 7 7 4 6 6 8
2 5 4 6 3 2 14 12 10 11 11 11 7 8 8 7 8 8 6 7 5 4 5 6 15 13 12 14 13 9 9 7 7 11 13 13 9 9 8 8 6 5 5 6
5 6 4 2 5 5 6 14 14 17 12 12 12 6 8 8 10 10 10 12 11 4 3 1 13 15 13 13 11 9 9 7 8 15 13 11 11 8 8 7 6 5 5 4
3 4 6 4 3 3 3 10 16 14 14 13 13 10 10 9 9 9 11 13 12 11 9 2 10 12 14 14 11 9 10 8 8 15 11 9 10 9 6 5 1 5 6 8
3 4 3 3 7 5 12 5 13 16 14 10 11 12 13 10 8 10 11 10 11 13 11 5 6 11 14 15 14 9 11 8 10 13 10 8 10 7 5 6 4 9 7 6
Wind_Direction
250 217 218 221 220 240 261 236 245 246 236 256 253 261 269 265 255 265 271 264 260 226 224 224 236 221 234 123 130 162 142 152 141 148 145 134 141 137 120 145 175 169 167 173
233 229 232 242 236 235 246 265 260 271 249 251 256 254 255 253 256 249 250 252 247 237 246 261 260 227 161 147 134 126 129 149 146 151 127 128 133 137 146 155 180 164 163 170
233 247 227 238 231 237 229 240 254 258 288 284 299 292 278 281 272 257 247 243 232 212 215 221 232 181 145 136 128 123 122 131 118 124 115 98 90 64 72 133 176 174 156 145
260 254 240 251 229 233 242 233 239 254 251 257 246 271 264 269 266 260 265 257 248 240 234 223 229 144 150 141 130 119 122 123 120 131 120 139 136 138 184 161 150 152 150 164
242 275 257 250 249 227 251 236 251 241 240 257 251 263 267 209 237 270 266 249 244 236 217 221 223 141 137 128 118 118 123 112 118 123 125 123 123 140 133 119 108 101 103 115
262 243 252 264 275 240 262 242 251 260 257 259 236 232 266 241 247 243 256 260 250 249 226 134 110 118 120 114 108 115 112 109 115 118 122 124 109 112 103 114 115 132 134 125
254 266 248 251 266 269 257 224 245 238 231 239 214 235 238 260 222 239 244 252 260 250 120 124 129 131 132 124 119 119 117 119 113 117 119 101 122 113 113 116 124 125 124 162
267 277 271 257 234 263 252 229 215 214 217 253 263 242 239 241 243 242 251 238 123 106 116 121 127 128 128 126 126 125 124 121 111 116 115 119 117 114 108 107 118 142 155 164
16 256 281 303 302 230 252 250 229 253 280 245 243 236 265 258 256 251 217 165 128 123 125 123 123 122 126 129 131 128 129 122 120 127 124 123 101 101 106 102 122 129 133 150
297 290 273 286 313 300 256 251 241 219 232 255 243 242 254 275 248 227 191 136 129 124 122 127 124 126 130 133 133 125 127 131 135 137 133 137 128 131 134 119 128 131 163 149
345 262 271 290 244 272 292 242 243 278 207 234 253 268 252 244 212 191 156 142 135 131 132 131 129 131 134 132 136 135 133 133 139 142 147 146 134 129 131 122 144 143 125 172
35 292 290 285 276 269 272 282 238 222 228 239 213 265 248 107 145 134 144 141 135 133 135 132 134 135 135 138 133 134 135 136 151 147 145 137 120 119 121 123 141 159 185 196
35 308 301 286 230 225 247 268 246 235 241 222 236 245 306 296 158 135 140 135 132 133 132 134 136 139 141 139 140 135 141 150 159 138 137 126 125 132 147 147 168 178 204 226
137 257 250 276 303 314 291 317 325 263 235 227 226 260 284 269 208 130 136 136 140 141 137 141 141 146 140 147 144 147 147 154 164 149 141 135 139 151 161 159 186 194 214 143
128 257 252 274 282 278 266 284 299 304 260 229 233 264 223 267 140 138 139 135 140 138 143 148 149 148 144 148 145 153 149 159 140 142 135 145 138 149 151 154 173 68 138 135
202 256 267 284 275 192 252 267 281 278 281 266 247 245 290 259 129 130 140 140 142 145 150 150 150 148 152 149 151 152 149 156 135 137 142 137 137 146 145 157 141 98 106 119
199 235 323 287 180 163 297 255 263 261 274 277 243 195 229 94 68 138 138 141 146 149 153 152 154 151 150 148 147 148 149 124 140 147 146 142 145 145 156 166 158 142 131 123
239 261 156 257 140 199 235 340 226 237 279 318 250 166 110 96 75 36 53 66 144 149 157 152 151 145 147 140 143 134 137 127 150 156 155 145 158 167 160 152 158 150 127 124
211 219 247 269 223 335 352 351 355 337 24 353 70 62 23 346 86 12 6 63 53 55 166 154 147 145 139 141 140 134 137 142 155 161 163 152 158 153 153 157 163 152 131 129
195 188 167 17 299 279 178 322 331 314 63 343 13 75 28 2 99 249 316 5 22 15 130 142 142 141 138 146 136 132 148 161 170 164 170 149 149 143 140 142 159 168 156 157
41 344 234 194 192 246 334 333 305 117 44 310 328 49 52 6 228 183 126 28 17 7 83 140 144 146 147 146 137 139 151 173 190 168 142 145 140 132 131 135 140 132 129 119
352 305 304 213 42 337 1 315 53 334 320 294 342 16 51 320 4 37 34 47 25 4 52 143 142 145 146 146 141 143 159 193 175 136 139 135 134 134 130 131 125 122 106 107
355 346 326 352 75 331 324 333 347 305 255 321 48 0 5 1 19 19 15 35 32 15 21 146 144 144 147 148 149 142 184 177 165 124 139 146 141 141 140 132 139 131 129 135
340 6 355 15 1 309 311 333 330 320 326 358 10 2 6 27 9 4 20 26 13 51 251 87 156 151 150 154 152 152 173 173 141 135 145 151 138 139 141 148 154 147 148 154
323 308 339 318 297 321 2 338 308 316 333 359 354 2 357 26 9 9 20 16 9 357 1 195 162 163 156 156 157 151 169 158 138 148 149 138 146 149 156 98 161 173 188 175
316 326 354 292 323 324 313 304 307 328 330 344 351 350 9 18 22 14 16 11 358 343 321 332 161 173 165 160 165 159 170 149 149 149 157 148 156 154 154 131 90 37 20 262